GFSGL_prec_cloud_159.txt.gz
Cloud_Cover
0 5 0 25 100 100 100 100 100 100 100 100 100 100 100 100 100 100 100 100 100 100 100 94 48 26 5 5 5 3 2 5 4 0 0 0 0 0 0 0 0 0 0
0 0 17 21 69 100 100 100 100 100 100 100 100 100 100 100 100 100 100 100 100 100 100 82 63 5 5 5 4 4 0 0 0 0 0 0 0 0 0 0 0 0 0
1 33 66 96 100 100 100 100 100 100 100 100 100 100 100 100 100 100 100 100 100 100 100 85 5 5 0 0 0 0 0 0 0 0 0 0 0 0 0 0 0 0 0
92 75 100 100 100 100 100 100 100 100 100 100 100 100 100 100 81 100 100 100 100 100 88 17 5 0 0 0 0 0 0 0 0 0 0 0 0 0 0 0 0 0 0
100 100 100 100 100 100 100 100 100 100 100 100 100 100 100 100 100 100 100 100 100 100 100 84 5 0 0 0 0 0 0 0 0 0 0 0 0 0 0 0 0 0 0
100 100 100 100 100 100 100 100 100 100 100 100 100 100 100 100 96 94 100 100 100 100 98 5 5 4 2 0 0 0 0 0 0 0 0 0 0 0 0 0 0 0 2
100 100 100 100 100 100 100 100 100 100 100 100 100 100 100 100 100 39 100 100 100 100 57 10 5 5 5 0 0 0 0 0 0 0 0 0 0 0 0 0 0 0 1
100 100 100 100 100 100 100 100 100 100 100 100 100 100 100 100 100 100 100 100 100 75 37 5 5 5 5 0 0 0 0 0 0 0 0 0 0 0 0 0 0 0 0
100 100 100 100 100 100 100 100 100 100 100 100 100 100 100 100 100 100 100 100 100 90 88 43 6 5 0 0 0 0 0 0 0 0 0 0 0 0 0 0 0 0 0
100 100 100 100 100 100 100 100 100 100 100 100 100 100 100 100 100 100 100 100 84 8 46 14 4 0 0 0 0 0 0 0 0 0 0 0 0 0 0 0 0 0 0
100 100 100 100 100 100 100 100 100 100 100 100 100 100 100 100 100 100 100 89 63 5 5 5 2 2 0 0 0 0 0 0 0 0 0 0 0 0 0 0 0 0 3
100 100 100 100 100 100 100 100 100 100 100 100 100 100 100 100 100 100 100 61 86 87 5 5 2 0 0 0 0 0 0 0 0 0 0 0 0 0 0 0 0 0 0
100 100 100 100 100 100 100 100 100 100 100 100 100 100 100 100 100 100 77 56 5 5 3 0 1 5 5 0 0 0 0 0 0 0 0 0 0 0 0 0 0 0 5
100 100 100 100 100 100 100 100 100 100 100 100 100 100 100 100 100 60 67 77 5 2 2 1 5 1 0 0 0 0 0 0 0 0 0 0 5 1 0 0 0 0 16
100 100 100 100 100 100 100 100 100 100 100 100 100 100 100 78 37 5 5 5 5 5 5 4 0 0 0 0 0 0 0 0 0 0 0 4 5 5 3 0 0 0 1
100 100 100 100 100 100 100 100 100 100 100 100 100 100 36 5 5 5 5 5 5 5 5 0 0 0 0 0 0 0 0 0 0 0 0 3 5 5 5 1 0 0 14
100 100 100 100 100 100 100 100 100 100 100 100 90 59 5 50 5 5 1 0 3 5 5 4 0 0 0 0 0 0 0 0 0 0 0 0 5 5 5 0 0 0 54
100 100 100 100 100 100 100 100 100 100 100 90 100 99 72 36 21 7 5 39 6 4 0 0 0 0 0 0 0 0 0 0 0 0 0 2 3 4 5 0 0 0 42
100 100 100 100 93 100 100 100 52 52 50 100 64 86 48 57 36 69 8 3 5 0 0 0 0 0 0 0 0 0 0 0 0 0 0 3 5 5 5 0 0 0 94
100 100 92 64 100 100 100 100 87 8 14 5 30 22 19 8 73 17 5 5 1 0 0 0 0 0 0 0 0 0 0 0 0 0 0 4 5 3 2 0 0 0 1
100 100 100 100 100 100 100 100 100 98 100 95 55 55 41 36 7 46 10 0 0 0 0 0 0 0 0 0 0 0 0 0 0 5 0 5 5 0 0 0 0 0 100
100 100 100 100 100 100 81 90 33 70 92 88 69 98 93 62 32 2 0 0 0 0 0 0 0 0 0 0 0 0 0 0 4 4 1 5 5 0 0 0 0 4 100
100 100 100 100 99 86 60 30 52 53 23 61 76 42 13 5 5 0 0 0 0 0 0 0 0 0 0 0 0 0 0 5 5 5 5 5 5 2 1 0 0 3 98
100 78 49 45 22 44 59 63 38 60 95 92 54 34 62 5 0 0 0 0 0 0 0 0 0 0 0 0 0 0 4 5 5 5 5 5 5 1 0 0 0 0 92
46 74 100 99 100 100 100 100 100 100 100 100 73 16 3 5 0 0 0 0 0 0 0 0 0 0 0 0 0 0 5 5 5 5 5 5 5 0 0 0 0 0 25
100 100 46 70 100 100 100 100 100 100 100 74 8 5 9 0 0 0 0 0 0 0 0 0 0 1 1 0 1 5 5 5 5 5 5 5 0 0 0 0 0 5 5

GFSGL_prec_cloud_162.txt.gz
Cloud_Cover
0 0 1 5 21 75 18 75 87 100 100 100 100 100 100 100 100 100 100 100 100 100 100 84 100 47 59 22 20 7 6 5 5 5 5 5 0 0 0 0 0 0 0
7 3 4 6 6 99 82 100 100 100 100 100 100 100 100 100 100 100 100 100 100 100 100 90 100 11 15 5 5 5 5 5 5 0 5 0 0 0 0 0 0 0 0
69 77 17 0 36 100 100 100 100 100 100 100 100 100 100 100 100 100 100 100 100 100 100 67 100 99 5 6 5 5 3 5 4 5 0 0 0 0 0 0 0 0 0
10 100 71 5 86 100 100 100 100 100 100 100 100 100 100 100 100 100 100 100 100 100 100 98 99 38 73 5 5 2 0 2 5 0 0 0 0 0 0 0 0 0 0
12 86 5 5 66 100 100 100 100 100 100 100 100 100 100 100 100 100 100 100 100 100 100 100 100 100 100 5 5 3 5 4 5 0 0 0 0 0 0 0 0 0 0
22 10 6 69 100 100 100 100 100 100 100 100 100 100 100 100 100 100 100 100 100 100 100 84 95 94 15 3 5 4 5 1 5 1 0 0 0 0 0 0 0 0 0
53 48 100 100 100 100 100 100 100 100 100 100 100 100 100 100 100 100 100 100 100 100 100 94 100 100 16 1 3 0 3 11 11 0 0 0 0 0 0 0 0 0 0
99 100 100 100 100 100 100 100 100 100 100 100 100 100 100 100 100 100 100 100 100 100 99 98 100 40 5 12 18 1 18 99 1 0 0 0 0 0 0 0 0 0 0
100 100 100 100 100 100 100 100 100 100 100 100 100 100 100 100 100 100 100 100 100 100 100 100 100 100 87 7 4 0 24 82 0 0 0 0 0 0 0 0 0 0 0
100 100 100 100 100 100 100 100 100 100 100 100 100 100 100 100 100 100 100 100 100 100 100 100 100 36 100 16 1 4 97 2 0 0 0 0 0 0 0 0 0 0 0
100 100 100 100 100 100 100 100 100 100 100 100 100 100 100 100 100 100 100 100 100 100 100 100 100 100 100 25 1 5 97 0 0 0 0 0 0 0 0 0 0 0 0
100 100 100 100 100 100 100 100 100 100 100 100 100 100 100 100 100 100 100 100 100 100 98 100 100 32 1 0 4 79 8 0 0 0 1 5 5 2 0 0 0 0 0
100 100 100 100 100 100 100 100 100 100 100 100 100 100 100 100 100 100 100 100 100 100 100 100 65 31 0 2 5 29 0 0 0 0 5 5 5 5 4 0 0 0 1
100 100 100 100 100 100 100 100 100 100 100 100 100 100 100 100 100 100 100 100 100 100 86 5 4 0 1 5 12 2 0 0 0 0 2 5 5 5 5 0 0 0 0
100 100 100 100 100 100 100 100 100 100 100 100 100 100 100 100 100 100 100 100 93 13 5 63 6 0 1 5 5 0 0 0 0 0 0 3 5 5 5 1 0 0 13
100 100 100 100 100 100 100 100 100 100 100 100 100 100 100 100 100 100 100 100 50 44 65 6 2 5 1 1 0 0 0 0 0 0 1 5 4 5 17 1 0 3 71
100 100 100 100 100 100 100 100 100 100 100 100 100 100 100 100 100 100 100 100 52 90 19 1 5 0 0 0 0 0 1 1 2 1 5 5 5 5 8 0 0 2 60
100 100 100 100 100 100 100 100 100 100 100 100 100 100 100 100 100 100 100 98 49 5 4 5 0 0 0 0 0 0 0 0 0 4 5 5 5 24 6 2 0 5 62
100 100 100 100 100 100 100 100 100 100 98 100 100 100 100 100 100 100 100 41 4 6 1 0 0 0 0 0 0 0 0 1 3 5 5 5 5 25 5 3 0 4 70
100 100 100 100 100 100 100 100 100 100 98 100 100 100 100 100 100 50 34 9 4 0 0 0 0 0 0 0 0 0 0 0 0 4 5 5 5 8 5 5 0 5 87
100 100 100 100 100 100 100 100 100 100 100 100 100 100 100 64 30 20 5 4 0 0 0 0 0 0 0 0 0 0 0 0 5 5 5 5 5 7 5 5 0 5 100
100 100 100 100 100 100 100 100 100 100 100 100 100 98 77 12 14 5 0 0 0 0 0 0 0 0 0 0 0 0 0 0 5 5 5 5 5 5 5 3 0 5 8
100 100 100 100 100 100 100 100 100 100 98 100 80 59 70 9 0 0 0 0 0 0 0 0 0 0 0 0 0 0 2 5 5 5 12 5 5 5 5 5 1 5 6
100 100 100 100 100 100 97 96 100 58 78 95 16 1 0 0 0 4 5 3 0 0 0 0 0 0 0 0 0 2 5 5 5 7 7 6 5 5 2 0 1 5 5
96 29 64 100 100 98 95 93 49 6 5 1 0 0 1 4 0 0 1 0 0 0 0 0 0 0 0 0 0 4 5 5 5 5 5 5 5 4 5 0 0 5 5
91 100 100 5 0 5 8 5 4 2 1 5 2 5 3 3 0 0 0 0 0 0 0 0 0 0 0 0 2 5 5 5 5 5 5 5 5 4 5 0 0 1 2

GFSGL_prec_cloud_165.txt.gz
Cloud_Cover
0 2 16 100 75 41 17 13 41 100 99 89 100 100 100 100 100 100 100 100 100 100 100 100 100 100 100 100 100 100 69 79 28 49 10 5 0 0 5 5 3 4 5
0 44 29 18 54 65 56 53 78 100 100 100 100 100 100 100 100 100 100 100 100 100 100 100 100 100 100 100 100 100 14 11 9 20 5 0 0 2 5 2 0 0 0
0 21 15 5 30 64 96 74 100 100 100 100 100 100 100 100 100 100 100 100 100 100 100 100 100 100 100 68 100 100 12 5 67 4 1 5 3 82 2 0 0 0 0
0 24 5 5 0 25 88 100 100 100 100 100 100 100 100 100 100 100 100 100 100 100 100 100 100 100 34 100 100 20 6 5 5 5 5 68 14 2 0 0 0 0 0
2 5 84 0 0 3 78 100 100 100 100 100 100 100 100 100 100 100 100 100 100 100 100 100 100 100 100 61 100 71 5 11 7 92 100 100 5 5 0 0 0 0 0
92 0 21 0 6 85 100 100 100 100 100 100 100 100 100 100 100 100 100 100 100 100 100 100 100 100 100 100 40 95 12 100 100 100 99 5 1 5 0 0 8 0 20
84 0 0 12 61 100 100 100 100 100 100 100 100 100 100 100 100 100 100 100 100 100 100 100 100 100 100 100 92 100 91 7 70 100 88 3 5 2 0 0 0 0 3
65 100 5 52 100 100 100 100 100 100 100 100 100 100 100 100 100 100 100 100 100 90 100 100 100 100 100 100 99 42 100 100 100 100 5 5 4 0 0 0 0 0 0
0 0 89 100 99 100 100 100 100 100 100 100 100 100 100 100 100 100 100 100 100 100 100 100 100 100 100 100 98 36 100 100 58 44 4 2 0 0 0 0 0 0 5
100 100 97 79 100 100 100 100 100 100 100 100 100 100 100 100 100 100 100 100 100 100 100 100 100 100 100 100 100 100 100 96 7 2 5 0 0 0 0 0 0 0 4
100 100 100 100 100 100 100 100 100 100 100 100 100 100 100 100 100 100 100 100 100 100 100 100 100 100 100 100 100 100 100 78 5 3 3 4 1 0 0 0 0 0 0
100 100 100 100 100 100 100 100 100 100 100 100 100 100 100 100 100 100 100 100 100 100 100 100 100 100 100 100 100 100 100 51 0 5 5 5 5 5 5 5 0 0 1
100 100 100 100 100 100 100 100 100 100 100 100 100 100 100 100 100 100 100 100 100 100 100 100 100 100 100 100 100 99 8 3 1 4 5 5 5 5 5 5 0 0 0
100 100 100 100 100 100 100 100 100 100 100 100 100 100 100 100 100 100 100 100 100 100 100 100 100 100 100 98 100 50 0 0 4 5 5 5 5 5 5 2 0 0 0
100 100 100 100 100 100 100 100 100 100 100 100 100 100 100 100 100 100 100 100 100 100 100 100 100 100 66 100 9 0 4 3 5 5 5 5 5 5 5 0 0 4 5
100 100 100 100 100 100 100 100 100 100 100 100 100 100 100 100 100 100 100 100 100 100 100 100 100 90 100 100 4 3 5 4 5 5 5 5 5 6 5 1 0 5 47
100 100 100 100 100 100 100 100 100 100 100 100 100 100 100 100 100 100 100 100 100 100 100 100 100 80 82 4 4 5 3 5 5 5 5 5 5 5 5 5 5 5 14
100 100 100 100 100 100 100 100 100 100 100 100 100 100 100 100 100 100 100 100 100 97 23 69 100 98 65 5 3 0 0 5 5 5 5 5 5 23 5 5 5 5 5
100 100 100 100 100 100 100 100 100 100 100 100 100 100 100 100 100 100 100 100 88 92 100 89 11 32 5 0 0 0 0 4 5 5 5 5 5 11 5 5 5 5 25
100 100 100 100 100 100 100 100 100 100 100 100 100 100 100 100 100 100 100 100 100 99 21 5 4 5 0 0 0 0 0 0 5 5 5 5 5 5 5 5 5 5 25
100 100 100 100 100 100 100 100 100 100 100 100 100 100 100 100 100 100 100 100 73 8 2 2 4 0 0 0 0 0 0 0 5 5 5 5 5 5 5 5 5 5 5
100 100 100 100 100 100 100 100 100 100 100 100 100 100 100 100 100 86 31 35 14 5 3 3 2 0 0 0 0 0 0 4 5 5 5 5 5 5 5 5 5 5 5
100 100 100 100 100 100 100 100 100 100 99 100 100 100 100 75 49 43 13 1 0 0 1 4 3 0 0 0 0 4 5 5 8 10 6 5 5 5 5 5 5 5 5
100 100 100 100 100 100 99 96 100 100 100 100 100 82 14 16 14 0 0 0 5 0 0 0 0 0 0 0 0 5 5 5 5 5 5 5 5 5 5 4 5 5 5
100 100 100 100 100 99 82 76 70 23 57 9 7 5 5 4 0 5 4 0 0 0 0 0 0 0 0 0 1 5 5 5 5 5 5 5 5 5 5 5 1 5 5
100 100 89 18 24 60 99 98 82 31 43 5 12 22 5 5 4 3 0 0 0 0 0 0 0 0 0 2 5 5 5 5 5 5 5 5 5 5 5 5 0 5 5

GFSGL_prec_cloud_168.txt.gz
Cloud_Cover
69 1 3 28 55 100 100 100 84 58 98 100 98 53 78 100 100 100 100 100 100 100 100 100 100 100 100 100 100 100 100 59 100 100 100 48 5 5 5 5 1 0 0
0 0 0 0 32 45 100 100 100 73 100 100 100 90 44 100 100 100 100 100 100 100 100 100 100 100 100 100 100 100 100 100 100 100 98 59 25 5 5 3 13 1 1
1 0 0 25 38 34 50 100 100 99 100 100 100 100 93 53 100 100 100 100 100 100 100 100 95 100 100 100 100 100 100 100 100 100 97 88 27 9 62 20 8 7 0
2 1 0 2 39 70 85 100 100 100 100 100 100 100 100 100 100 100 100 100 100 100 100 100 100 100 100 100 100 100 100 100 100 100 100 100 5 100 22 73 34 4 0
0 0 0 1 41 76 100 100 100 100 100 100 100 100 100 100 100 100 100 100 100 100 100 100 100 100 100 100 100 100 100 100 100 7 98 100 100 100 97 7 96 0 0
4 0 0 0 50 1 99 100 100 100 100 100 100 100 100 100 100 100 100 100 100 100 100 100 100 100 100 100 100 100 100 100 72 99 26 100 100 100 100 71 30 4 0
32 0 1 0 0 23 100 100 100 100 100 100 100 100 99 100 100 100 100 100 100 100 100 100 100 100 100 100 100 100 100 48 5 96 100 100 100 100 73 87 6 5 1
59 57 15 16 83 100 100 100 100 100 100 100 100 100 100 100 100 100 100 100 100 100 100 100 100 100 100 100 100 100 68 98 100 100 100 100 100 100 76 6 5 5 1
50 83 60 99 100 100 100 100 100 100 100 100 100 100 100 100 100 100 100 100 100 100 100 100 100 100 100 100 100 100 100 93 100 100 100 100 100 100 41 34 5 5 4
8 66 73 92 100 100 100 100 100 100 100 100 100 100 100 100 100 100 100 100 100 100 100 100 100 100 100 100 100 100 99 100 100 100 100 89 87 31 6 5 5 5 5
75 100 98 100 100 100 100 100 100 100 100 100 100 100 100 100 100 100 100 100 100 100 100 100 100 100 100 100 100 100 100 100 100 100 100 55 28 5 4 3 5 5 5
96 100 100 100 100 100 100 100 100 100 100 100 100 100 100 100 100 100 100 100 100 100 100 100 100 100 100 100 96 100 100 100 100 100 100 95 51 0 1 5 0 0 4
100 100 100 100 100 100 100 100 100 100 100 100 100 100 100 100 100 100 100 100 100 100 100 100 100 100 100 100 100 100 100 100 100 100 5 4 3 5 4 1 0 0 0
100 100 100 100 100 100 100 100 100 100 100 100 100 100 100 100 100 100 100 100 100 100 100 100 100 100 100 100 100 100 100 100 100 90 24 0 0 0 0 0 0 4 5
100 100 100 100 100 100 100 100 100 100 100 100 100 100 100 100 100 100 100 100 100 100 100 98 100 100 100 100 100 100 100 94 60 4 2 0 0 0 0 0 0 5 5
100 100 100 100 100 100 100 100 100 100 100 100 100 100 100 100 100 100 100 100 100 100 100 100 100 100 100 100 83 36 6 80 3 3 5 0 0 4 4 0 0 5 5
100 100 100 100 100 100 100 100 100 100 100 100 100 100 100 100 100 100 100 100 100 100 100 100 100 60 22 99 100 100 1 4 5 1 0 0 1 5 4 0 0 5 5
100 100 100 100 100 100 100 100 100 100 100 100 100 100 100 100 100 100 100 100 100 100 100 100 96 42 100 100 85 11 5 4 1 0 0 0 5 5 5 0 2 5 66
100 100 100 100 100 100 100 100 100 100 100 100 100 100 100 100 100 100 100 100 100 100 100 100 100 100 84 18 6 3 2 1 1 0 0 3 5 5 5 0 3 5 15
100 100 100 100 100 100 100 100 100 100 100 100 100 100 100 100 100 100 100 100 100 100 100 100 90 64 12 5 5 2 0 0 0 0 0 4 5 5 5 5 5 5 7
100 100 100 100 100 100 100 100 100 100 100 100 100 100 100 100 100 100 100 100 100 100 64 7 11 5 2 4 0 0 0 0 0 2 0 5 5 5 5 5 5 5 5
100 100 100 100 100 100 100 100 100 100 100 100 100 100 100 100 100 100 100 100 99 73 68 5 5 5 4 0 0 0 0 0 0 5 0 1 5 3 5 5 5 5 5
100 100 100 100 100 100 100 100 100 100 100 100 100 100 100 100 100 100 59 11 5 5 3 3 2 0 0 0 0 0 0 3 5 5 0 0 3 0 5 5 5 5 5
100 100 100 100 100 99 100 100 100 100 100 100 95 100 97 78 33 5 5 5 5 4 0 0 0 0 0 0 0 0 1 3 0 0 0 0 0 0 0 0 4 5 5
100 100 100 98 92 72 64 46 10 12 10 5 22 22 5 5 4 2 4 1 0 0 0 0 0 0 0 0 0 0 3 5 1 3 0 0 0 0 1 4 5 5 5
100 100 84 40 82 96 100 100 100 100 68 59 9 5 5 5 4 1 0 2 3 5 0 0 0 0 0 0 0 3 5 5 2 5 0 0 0 0 5 5 5 5 5

GFSGL_prec_cloud_171.txt.gz
Cloud_Cover
0 0 0 0 8 99 100 20 93 93 27 100 100 100 64 60 100 95 91 100 100 100 100 100 100 100 100 100 100 100 100 100 96 100 74 68 94 100 99 15 5 93 19
0 0 0 0 8 56 100 61 18 99 86 100 100 100 100 85 78 100 85 100 100 100 100 100 100 100 100 100 100 100 100 100 100 100 100 100 100 100 62 5 5 95 45
5 6 0 0 3 100 86 70 50 61 100 100 100 100 100 95 99 100 100 100 100 100 100 100 100 100 100 100 100 100 100 100 100 100 100 100 100 100 81 5 26 77 3
4 84 14 0 0 41 100 80 82 88 100 100 100 100 100 100 100 100 100 100 99 100 100 100 100 100 100 100 100 100 100 100 100 100 100 100 100 100 99 95 24 41 100
5 3 18 0 0 5 20 32 99 100 100 100 100 100 100 100 100 100 96 99 100 100 100 100 100 100 100 100 100 100 100 100 100 100 100 93 90 100 81 5 6 100 47
6 9 4 0 0 16 34 48 100 100 100 100 100 100 100 100 100 100 100 100 100 100 100 100 100 100 100 100 100 100 100 100 100 100 100 100 73 100 5 5 97 2 100
100 9 2 3 1 81 76 99 100 100 100 100 100 100 100 100 100 100 100 100 100 100 100 100 100 100 100 100 100 100 100 100 100 100 100 80 100 66 94 100 56 2 5
62 51 6 5 9 5 100 100 100 100 100 100 100 100 100 100 100 100 99 100 100 100 100 100 100 100 100 100 100 100 100 100 100 100 87 6 100 100 98 59 15 0 0
98 98 50 9 2 48 100 100 100 100 100 100 100 100 100 100 100 100 100 100 100 100 100 100 100 100 100 100 100 100 100 100 100 37 5 89 100 100 74 11 0 0 0
100 92 92 4 94 100 100 100 100 100 100 100 100 100 100 100 100 100 99 100 100 100 100 100 100 100 100 100 100 100 100 98 7 37 100 100 100 7 3 4 0 1 4
93 82 80 100 100 100 100 100 100 100 100 100 100 100 100 100 100 100 100 100 100 100 100 100 100 100 100 100 100 100 100 89 39 100 100 100 14 1 0 0 2 5 5
87 86 100 100 100 100 100 100 100 100 100 100 100 100 100 100 100 100 100 100 100 100 100 100 100 100 100 100 100 94 60 88 100 100 76 5 0 0 0 0 0 5 38
38 100 100 100 100 100 100 100 100 100 100 100 100 100 100 100 100 100 100 100 100 100 100 100 100 100 100 100 100 100 100 100 100 100 34 0 0 0 0 0 0 0 5
100 100 100 100 100 100 100 100 100 100 100 100 100 100 100 100 100 100 100 100 100 100 100 100 100 100 100 100 100 96 100 100 31 9 4 0 0 4 1 0 0 0 5
100 100 100 100 100 100 100 100 100 100 100 100 100 100 100 100 100 100 100 100 100 100 100 100 100 100 100 100 100 100 100 81 1 0 13 6 5 3 1 0 0 2 5
100 100 100 100 100 100 100 100 100 100 100 100 100 100 100 100 100 100 100 100 100 100 100 100 100 100 100 100 98 100 7 0 5 7 16 2 4 5 1 0 0 4 14
100 100 100 100 100 100 100 100 100 100 100 100 100 100 100 100 100 100 100 100 100 100 100 100 100 100 100 92 99 84 3 4 5 99 6 36 0 0 0 0 0 5 19
100 100 100 100 100 100 100 100 100 100 100 100 100 100 100 100 100 100 100 100 100 100 100 100 99 22 100 64 7 47 21 7 100 16 5 0 0 0 0 0 0 5 54
100 100 100 100 100 100 100 100 100 100 100 100 100 100 100 100 100 100 100 100 100 100 92 71 94 92 24 61 76 99 71 41 3 5 0 0 2 0 0 0 0 2 45
100 100 100 100 100 100 100 100 100 100 100 100 100 100 100 100 100 100 100 100 100 100 100 100 97 25 62 100 46 4 2 0 0 0 0 0 3 0 0 0 0 0 22
100 100 100 100 100 100 100 100 100 100 100 100 100 100 100 100 100 100 100 100 100 100 93 35 82 100 60 23 27 5 2 0 0 0 0 0 5 0 0 0 0 0 5
100 100 100 100 100 100 100 100 100 100 100 100 100 100 100 100 100 100 100 100 92 53 100 100 100 96 14 4 0 0 0 0 0 0 0 0 3 0 0 0 0 0 1
100 100 100 100 100 100 100 100 100 100 100 100 100 100 100 100 100 100 100 100 100 100 100 31 2 1 0 0 0 0 1 0 0 0 0 0 0 0 0 0 0 0 0
100 100 100 100 100 100 100 100 100 100 100 100 100 100 100 100 100 100 100 100 94 16 0 1 2 4 0 0 0 0 0 0 0 0 0 0 0 0 0 0 0 0 0
100 100 100 100 100 100 100 100 100 100 100 99 77 71 97 40 4 7 5 5 0 0 0 0 1 0 0 0 0 0 3 5 1 3 0 0 0 0 0 0 0 0 0
100 100 99 99 100 100 92 94 95 57 39 17 5 6 21 5 5 5 2 2 4 5 5 0 3 3 0 0 0 3 5 5 2 5 0 0 0 0 0 0 0 0 0